Wind_Speed
28 30 35 37 36 36 35 40 39 37 36 36 34 36 37 39 39 38 37 35 33 31 31 29 29 29 28 27 25 28 28 25 19 22 21 20 20 22 22 21 16 15 14
29 28 29 31 37 39 34 35 37 40 39 35 35 36 36 38 40 42 40 39 37 35 33 30 29 30 30 29 27 28 29 28 26 25 23 22 20 20 22 21 19 17 17
28 28 28 32 32 33 31 31 27 27 42 37 34 39 40 39 40 41 42 41 39 38 35 33 32 31 31 31 29 28 28 28 30 31 28 24 21 21 24 22 22 19 18
20 25 31 32 31 31 31 32 32 28 35 31 28 37 45 46 44 42 42 43 39 38 38 37 34 32 32 31 31 30 29 28 30 31 30 27 26 24 24 24 26 23 20
21 24 27 28 30 29 27 31 31 32 31 23 24 28 41 42 45 47 46 47 43 42 39 37 35 34 33 32 32 32 31 31 32 33 33 31 30 30 30 29 27 24 22
17 20 23 24 27 27 24 21 23 24 24 28 26 18 33 34 35 40 47 46 42 45 43 40 39 37 35 33 31 31 32 33 35 35 35 34 32 31 29 31 27 28 26
9 11 14 17 22 23 22 22 21 21 26 31 28 22 26 33 26 31 30 35 41 40 43 39 39 40 37 36 33 32 32 31 30 30 32 32 31 28 27 28 27 28 27
12 9 11 12 14 14 19 20 21 23 24 28 32 32 31 36 33 24 25 19 17 17 19 29 40 43 40 38 35 34 33 32 30 30 29 25 23 20 20 18 17 22 25
8 12 9 10 13 14 12 14 19 18 23 25 27 23 27 30 27 22 23 23 21 22 21 22 34 36 35 39 39 37 35 34 31 29 27 26 25 22 21 21 24 26 30
5 4 5 5 7 9 9 10 14 15 18 20 21 20 23 23 22 23 23 25 26 23 21 24 28 32 33 36 39 39 40 39 36 33 31 28 24 24 24 23 24 26 30
6 5 4 2 2 4 7 8 8 9 13 15 14 14 17 17 18 20 22 26 26 22 19 20 20 23 26 27 34 37 39 36 32 30 29 29 28 25 25 27 26 26 28
6 6 5 6 5 2 4 5 6 5 7 12 14 15 15 16 17 18 19 21 21 20 18 16 12 11 15 20 28 32 34 32 33 34 35 38 37 30 25 27 26 26 25
13 13 12 10 10 11 10 9 9 6 4 3 3 2 3 7 12 14 17 20 20 18 15 13 9 8 11 21 27 30 30 33 35 36 37 33 28 20 24 27 27 26 24
18 17 16 14 12 10 9 9 9 6 5 4 4 4 4 3 2 3 6 9 11 11 12 11 7 7 11 21 25 26 30 34 37 34 30 22 20 23 26 28 28 27 26
18 18 17 17 15 13 11 11 11 10 5 3 2 2 1 1 3 1 0 2 4 7 6 5 6 8 13 21 23 26 28 29 30 24 21 22 21 23 25 25 27 27 28
15 14 14 13 13 13 13 13 13 12 8 7 5 3 2 1 1 2 3 2 2 3 5 4 7 10 12 19 23 24 25 23 20 19 18 19 19 23 27 27 26 26 28
16 15 14 12 11 10 10 9 9 8 9 8 8 7 6 5 3 1 2 3 3 5 5 6 8 8 12 18 21 21 20 17 17 18 19 20 24 26 25 25 26 28 29
20 18 17 16 14 11 10 9 7 7 7 7 7 7 6 5 5 2 3 3 4 3 4 5 5 7 8 11 14 14 15 16 18 19 21 23 24 24 24 26 27 29 30
22 21 19 18 17 15 13 12 11 11 11 11 9 8 8 7 5 1 0 2 3 5 6 7 6 7 7 8 9 12 16 19 19 19 20 23 25 26 26 26 28 29 29
18 16 15 15 14 15 14 13 13 12 12 12 13 13 11 7 7 7 4 1 3 4 6 7 7 7 8 8 9 12 14 17 19 20 21 22 25 27 28 27 27 29 30
13 11 11 9 9 9 9 9 9 8 9 10 10 10 10 10 10 9 8 6 4 3 4 5 7 8 9 9 9 9 10 12 15 18 20 22 23 26 27 28 27 28 29
11 10 9 9 8 7 7 7 7 7 8 7 7 7 8 8 8 7 7 7 7 7 7 7 6 6 8 8 10 11 13 14 14 16 18 20 20 22 23 24 25 27 31
10 9 8 8 8 8 7 7 7 7 8 8 9 9 9 9 10 10 10 10 9 9 8 8 9 8 9 10 11 12 12 13 13 14 15 16 18 20 23 24 25 25 24
11 10 10 9 9 9 9 9 10 10 10 10 10 10 10 10 11 11 12 12 12 13 13 12 11 10 10 11 11 12 13 14 14 15 15 16 16 17 18 19 20 20 19
12 11 11 11 11 11 10 10 11 11 11 11 11 11 11 11 11 12 13 13 13 14 13 14 14 14 13 12 11 11 12 13 16 17 18 18 19 19 20 20 21 23 23
13 13 13 12 12 12 12 13 13 12 12 12 12 12 11 11 11 12 12 12 12 12 14 14 15 16 17 17 17 18 17 16 15 15 16 17 18 18 17 17 16 18 19
Wind_Direction
231 233 233 225 229 231 232 234 236 235 236 235 235 234 231 230 231 229 229 230 229 230 231 231 233 235 237 236 230 224 227 229 234 233 235 233 236 228 221 226 224 221 219
227 232 238 233 228 228 228 234 241 251 232 238 240 241 238 235 235 234 233 232 231 232 233 231 233 233 236 239 237 232 229 226 226 236 232 230 231 229 223 225 226 221 219
227 229 228 226 229 224 217 212 220 243 250 242 243 242 243 240 239 238 237 236 235 235 235 235 236 232 233 238 238 235 232 228 223 231 235 236 236 226 219 220 226 221 216
232 227 223 224 225 229 231 228 226 234 239 247 257 253 248 245 237 241 240 237 235 238 237 237 240 237 238 235 235 237 233 229 223 226 232 235 233 230 223 224 222 228 222
230 226 230 234 239 241 243 244 241 232 239 247 257 270 256 249 245 239 234 237 236 235 235 238 241 243 243 240 237 234 230 227 225 224 227 226 223 222 224 221 224 230 225
226 226 232 236 240 244 251 253 250 225 231 242 251 283 278 259 258 252 246 243 239 239 233 234 239 244 241 239 236 237 239 234 226 225 227 227 229 227 225 221 222 219 222
206 225 226 234 239 241 248 249 246 247 244 248 231 257 271 260 265 264 265 250 246 241 237 234 232 236 239 236 235 234 235 236 238 244 239 235 232 234 231 225 223 228 235
204 201 209 220 240 241 245 245 250 250 247 245 242 234 244 256 251 253 261 250 225 237 241 246 243 238 236 234 229 230 229 229 229 230 234 242 242 236 236 236 245 240 238
181 195 203 202 210 225 236 242 242 248 256 248 245 244 245 248 242 246 237 218 226 235 237 230 241 243 243 242 232 224 223 223 221 226 228 225 224 220 222 225 227 231 230
117 150 191 206 214 220 231 244 241 243 252 254 247 244 249 248 253 237 223 230 235 241 245 245 247 251 252 244 233 225 220 220 217 218 219 219 221 231 235 241 241 239 232
83 88 104 132 237 246 246 255 264 245 241 242 237 233 238 244 246 249 237 233 238 242 244 249 254 257 256 251 241 229 224 222 219 215 222 223 225 239 247 247 246 241 236
98 96 96 103 109 143 218 209 224 229 224 234 235 237 239 239 241 243 235 225 231 243 250 251 252 271 261 241 231 227 222 216 220 218 217 223 234 231 237 247 245 239 232
104 100 98 101 97 100 97 114 120 110 105 112 137 172 242 260 253 244 236 235 226 236 243 257 269 271 255 230 227 228 230 225 224 222 222 231 230 231 241 244 242 238 236
94 92 91 90 92 93 99 94 108 104 84 61 37 39 29 356 326 246 234 230 235 242 244 244 246 244 238 225 217 220 224 229 233 236 241 224 228 234 240 238 237 234 235
100 96 92 88 82 81 79 75 75 84 74 70 43 16 38 337 295 316 73 201 241 234 229 225 223 217 211 214 217 217 224 231 242 234 225 230 234 235 234 241 236 233 233
105 104 101 100 92 84 79 77 69 64 58 63 67 63 57 69 119 185 200 187 209 242 234 235 233 226 228 222 226 223 226 244 236 231 234 236 237 240 242 238 231 234 236
90 92 94 97 100 95 93 94 88 71 59 59 56 44 37 38 43 91 137 141 178 238 243 243 244 245 241 230 232 241 244 239 237 236 235 239 246 241 242 238 238 237 234
83 84 85 85 88 92 93 91 82 77 74 68 55 45 46 44 54 87 161 155 172 207 224 252 271 261 256 253 253 252 246 243 243 245 247 245 244 245 245 243 240 240 239
78 74 74 77 78 79 80 79 76 74 71 69 70 67 58 46 41 16 294 270 254 253 262 268 265 277 281 284 270 261 256 259 257 254 249 244 243 242 241 243 245 245 242
72 74 72 74 75 74 73 73 71 67 64 60 56 52 47 47 58 61 65 133 241 254 260 264 265 268 269 267 268 268 263 258 255 254 254 251 248 246 245 241 244 245 241
58 59 57 56 56 54 51 50 48 45 42 38 37 32 24 25 31 30 28 20 6 340 307 288 279 273 265 255 248 244 251 257 259 260 258 256 254 254 252 244 237 243 247
40 37 34 31 27 21 17 11 4 1 358 355 356 352 348 347 349 352 357 357 349 342 336 328 310 294 279 265 263 265 264 256 252 253 255 256 256 256 255 251 251 242 248
24 21 16 11 4 358 348 342 337 330 326 322 320 317 316 315 315 314 315 314 313 315 319 313 305 297 287 277 273 272 270 267 265 260 254 258 258 258 257 256 257 255 253
3 1 358 354 349 344 337 333 328 323 320 316 312 307 303 299 297 295 292 291 293 294 296 296 295 297 288 273 269 266 265 264 262 262 259 256 255 254 254 256 254 252 253
345 345 344 341 338 334 329 325 320 315 312 309 306 302 298 295 291 289 288 288 286 283 284 284 286 284 282 283 278 273 266 259 260 260 260 259 258 257 255 253 253 257 261
332 331 329 327 324 321 318 315 313 311 310 307 302 300 298 294 292 290 293 295 297 293 288 285 281 278 277 274 270 268 267 266 265 264 263 260 257 256 255 251 249 251 252
Height
1420 1425 1429 1434 1440 1444 1452 1457 1461 1466 1470 1474 1476 1481 1486 1490 1494 1497 1501 1505 1508 1510 1513 1516 1519 1522 1525 1527 1531 1534 1535 1538 1539 1539 1541 1542 1544 1547 1548 1549 1551 1553 1555
1420 1423 1426 1432 1437 1440 1443 1450 1456 1458 1463 1467 1471 1475 1480 1483 1487 1490 1494 1498 1500 1503 1506 1508 1511 1515 1519 1521 1524 1527 1530 1534 1535 1535 1537 1538 1539 1543 1547 1547 1548 1549 1551
1416 1420 1423 1426 1430 1437 1440 1443 1449 1456 1458 1460 1463 1468 1471 1476 1480 1483 1486 1489 1492 1495 1498 1501 1503 1506 1510 1514 1517 1521 1524 1527 1529 1530 1532 1535 1537 1539 1542 1545 1545 1544 1546
1413 1416 1420 1424 1427 1431 1436 1439 1440 1444 1451 1454 1454 1462 1466 1468 1469 1476 1480 1481 1484 1487 1490 1493 1497 1500 1502 1504 1507 1511 1516 1520 1522 1525 1527 1529 1531 1533 1537 1540 1542 1542 1543
1410 1412 1416 1420 1423 1426 1431 1436 1435 1436 1444 1442 1449 1455 1456 1459 1460 1463 1467 1473 1475 1478 1481 1484 1488 1493 1497 1499 1502 1504 1507 1511 1512 1516 1519 1521 1522 1523 1527 1534 1537 1540 1540
1406 1408 1412 1414 1418 1420 1423 1427 1430 1426 1432 1439 1444 1445 1451 1451 1453 1456 1459 1459 1462 1467 1469 1473 1478 1485 1490 1491 1494 1498 1502 1504 1505 1507 1509 1513 1515 1518 1520 1525 1530 1534 1536
1403 1405 1408 1410 1412 1415 1419 1420 1421 1422 1427 1433 1434 1438 1448 1449 1451 1451 1451 1451 1456 1457 1461 1464 1468 1473 1478 1483 1485 1489 1493 1498 1499 1503 1506 1508 1511 1514 1518 1522 1522 1526 1530
1400 1403 1404 1406 1407 1410 1415 1416 1418 1421 1422 1425 1430 1431 1439 1443 1444 1445 1445 1446 1450 1454 1455 1456 1461 1464 1467 1472 1476 1481 1485 1488 1491 1494 1498 1505 1508 1512 1515 1517 1521 1524 1526
1397 1400 1403 1404 1407 1410 1411 1414 1415 1415 1417 1419 1426 1427 1431 1434 1437 1438 1438 1442 1444 1448 1451 1450 1455 1458 1458 1463 1467 1469 1474 1479 1482 1487 1493 1497 1501 1504 1508 1510 1511 1515 1517
1394 1396 1398 1401 1403 1404 1405 1406 1408 1408 1412 1416 1421 1423 1425 1426 1427 1431 1435 1439 1440 1441 1443 1447 1451 1454 1455 1457 1459 1459 1464 1470 1471 1478 1486 1489 1493 1499 1503 1504 1506 1508 1513
1394 1395 1396 1398 1399 1399 1400 1401 1406 1407 1411 1415 1417 1419 1422 1420 1422 1427 1429 1430 1432 1436 1439 1442 1446 1446 1448 1451 1454 1457 1461 1466 1472 1474 1480 1484 1484 1491 1496 1501 1501 1503 1506
1396 1396 1396 1397 1398 1400 1400 1401 1404 1408 1412 1415 1415 1415 1415 1418 1418 1421 1424 1423 1429 1432 1435 1440 1439 1441 1442 1443 1449 1455 1458 1462 1467 1470 1472 1474 1479 1484 1491 1495 1496 1498 1502
1397 1397 1398 1400 1400 1401 1402 1402 1404 1408 1411 1414 1415 1413 1413 1413 1414 1416 1419 1419 1422 1428 1432 1433 1434 1437 1438 1443 1443 1449 1455 1459 1460 1465 1465 1467 1473 1481 1485 1489 1492 1495 1497
1399 1401 1402 1403 1405 1406 1405 1406 1405 1409 1412 1414 1415 1414 1412 1414 1416 1418 1415 1416 1424 1423 1427 1430 1431 1435 1436 1441 1442 1446 1448 1454 1457 1460 1462 1465 1470 1474 1479 1482 1486 1489 1493
1403 1404 1405 1405 1408 1409 1409 1410 1409 1410 1413 1413 1413 1413 1413 1414 1416 1415 1416 1418 1423 1426 1429 1426 1429 1431 1434 1438 1439 1441 1446 1449 1453 1454 1458 1462 1465 1468 1472 1476 1480 1483 1486
1407 1408 1408 1408 1410 1411 1412 1413 1413 1413 1415 1415 1415 1416 1416 1416 1417 1419 1421 1419 1421 1427 1428 1426 1431 1432 1432 1435 1437 1439 1441 1444 1447 1451 1455 1458 1461 1464 1468 1471 1474 1476 1479
1411 1412 1412 1413 1414 1415 1415 1416 1416 1418 1418 1417 1417 1418 1417 1417 1417 1416 1417 1417 1423 1430 1428 1430 1433 1428 1431 1434 1435 1435 1436 1441 1445 1448 1451 1453 1458 1461 1462 1465 1468 1471 1474
1417 1417 1417 1418 1419 1420 1420 1420 1421 1422 1421 1421 1422 1422 1421 1421 1421 1422 1423 1424 1427 1429 1430 1430 1426 1428 1429 1430 1430 1432 1434 1438 1441 1443 1446 1449 1452 1455 1457 1459 1462 1465 1467
1421 1422 1422 1423 1423 1424 1424 1424 1424 1424 1424 1424 1424 1423 1422 1422 1422 1422 1423 1424 1426 1427 1426 1427 1426 1426 1426 1427 1428 1430 1432 1434 1436 1438 1441 1443 1446 1448 1450 1453 1456 1459 1462
1426 1427 1429 1429 1428 1427 1427 1427 1427 1426 1426 1426 1425 1424 1424 1424 1423 1423 1424 1425 1426 1425 1424 1423 1422 1422 1423 1423 1425 1426 1429 1431 1432 1434 1436 1438 1440 1442 1444 1446 1450 1453 1455
1431 1431 1431 1430 1430 1430 1430 1429 1429 1429 1428 1427 1427 1426 1426 1425 1424 1423 1423 1423 1422 1422 1420 1420 1419 1419 1420 1421 1422 1424 1425 1426 1428 1429 1431 1433 1435 1436 1438 1440 1443 1447 1450
1432 1431 1431 1431 1431 1430 1429 1429 1428 1428 1427 1427 1427 1426 1426 1425 1425 1424 1423 1422 1421 1420 1419 1418 1417 1417 1418 1419 1420 1421 1421 1422 1423 1425 1427 1429 1430 1432 1433 1435 1437 1439 1442
1433 1433 1432 1431 1430 1429 1428 1427 1427 1426 1426 1425 1425 1424 1423 1423 1422 1421 1420 1420 1420 1419 1418 1417 1416 1416 1416 1416 1417 1417 1418 1418 1420 1421 1422 1423 1425 1426 1428 1429 1430 1432 1433
1433 1432 1431 1430 1429 1428 1427 1426 1425 1424 1423 1422 1421 1421 1420 1420 1419 1418 1418 1417 1417 1416 1416 1415 1414 1413 1413 1413 1414 1414 1415 1416 1417 1417 1418 1419 1420 1421 1422 1423 1424 1425 1427
1433 1431 1430 1428 1427 1426 1425 1424 1423 1422 1420 1419 1418 1418 1417 1416 1415 1415 1414 1414 1413 1413 1413 1412 1411 1411 1411 1410 1410 1410 1411 1411 1411 1412 1413 1413 1414 1415 1416 1417 1419 1420 1422
1430 1429 1427 1426 1425 1423 1422 1421 1419 1418 1417 1416 1415 1414 1413 1413 1412 1412 1410 1410 1409 1408 1407 1407 1407 1406 1406 1405 1406 1406 1406 1407 1407 1408 1408 1409 1409 1410 1411 1412 1413 1415 1416